Total_Precipitation_Accumulation
0.74 0.73 0.77 0.78 0.81 0.86 0.92 0.94 0.99 1.04 1.10 1.10 1.07 1.03 0.92 0.85 0.83 0.83 0.87 0.96 0.95 0.91 0.95 0.93 0.91 0.93 0.98 0.98 1.00 1.04 1.22 1.37 1.28 1.23 1.12 0.98 0.86 0.76 0.63 0.57 0.49 0.40 0.36
0.72 0.71 0.75 0.77 0.76 0.75 0.77 0.76 0.78 0.82 0.84 0.85 0.86 0.90 0.93 0.90 0.84 0.81 0.80 0.80 0.84 0.84 0.88 0.92 0.93 0.98 0.98 0.90 0.92 0.99 1.17 1.36 1.42 1.51 1.57 1.33 1.05 0.86 0.79 0.66 0.47 0.35 0.36
0.66 0.70 0.76 0.75 0.72 0.73 0.76 0.76 0.74 0.73 0.73 0.73 0.73 0.74 0.76 0.86 0.94 0.93 0.90 0.92 0.96 0.88 0.90 0.96 0.93 0.91 0.89 0.85 0.89 0.98 1.10 1.23 1.35 1.41 1.52 1.34 1.16 0.93 0.91 0.76 0.59 0.52 0.38
0.57 0.71 0.82 0.87 0.86 0.86 0.80 0.80 0.78 0.74 0.74 0.72 0.68 0.68 0.70 0.71 0.79 0.90 0.94 0.93 0.89 0.84 0.84 0.83 0.78 0.76 0.76 0.75 0.76 0.86 0.96 1.02 1.10 1.15 1.25 1.29 1.31 1.25 1.20 1.03 0.88 0.75 0.62
0.57 0.77 0.87 0.84 0.78 0.76 0.73 0.79 0.76 0.68 0.68 0.69 0.62 0.60 0.65 0.69 0.69 0.69 0.78 0.81 0.77 0.74 0.75 0.69 0.59 0.60 0.62 0.58 0.59 0.71 0.79 0.87 0.95 1.02 1.14 1.27 1.35 1.38 1.30 1.23 1.09 1.00 0.85
0.51 0.62 0.65 0.68 0.70 0.65 0.60 0.57 0.56 0.58 0.57 0.57 0.52 0.50 0.51 0.51 0.55 0.52 0.52 0.58 0.58 0.56 0.59 0.60 0.54 0.49 0.47 0.48 0.47 0.50 0.55 0.62 0.76 0.94 1.08 1.26 1.31 1.25 1.32 1.29 1.25 1.18 1.13
0.42 0.46 0.53 0.62 0.64 0.57 0.48 0.50 0.53 0.51 0.49 0.47 0.44 0.41 0.39 0.38 0.36 0.34 0.35 0.42 0.45 0.43 0.43 0.46 0.44 0.43 0.39 0.34 0.40 0.47 0.47 0.48 0.50 0.69 0.87 0.92 0.92 0.88 1.05 1.23 1.21 1.19 1.26
0.43 0.49 0.52 0.62 0.62 0.55 0.52 0.50 0.49 0.46 0.45 0.44 0.40 0.38 0.37 0.37 0.34 0.31 0.29 0.28 0.34 0.38 0.36 0.36 0.37 0.40 0.38 0.34 0.33 0.40 0.39 0.37 0.37 0.39 0.43 0.44 0.49 0.56 0.72 0.99 1.18 1.16 1.23
0.43 0.53 0.61 0.66 0.63 0.57 0.54 0.49 0.47 0.46 0.41 0.38 0.40 0.40 0.37 0.36 0.31 0.28 0.29 0.31 0.34 0.34 0.34 0.33 0.31 0.33 0.38 0.36 0.33 0.33 0.33 0.34 0.34 0.32 0.29 0.33 0.37 0.38 0.43 0.59 0.81 1.10 1.42
0.53 0.60 0.65 0.66 0.66 0.62 0.59 0.55 0.50 0.49 0.44 0.38 0.40 0.41 0.38 0.37 0.31 0.24 0.23 0.29 0.37 0.37 0.39 0.38 0.33 0.30 0.31 0.27 0.26 0.27 0.25 0.26 0.25 0.28 0.30 0.30 0.32 0.34 0.34 0.38 0.48 0.70 1.02
0.55 0.62 0.69 0.73 0.69 0.65 0.65 0.64 0.60 0.57 0.56 0.49 0.42 0.41 0.40 0.38 0.33 0.24 0.23 0.29 0.37 0.42 0.42 0.40 0.37 0.32 0.27 0.24 0.22 0.20 0.20 0.18 0.19 0.22 0.27 0.29 0.28 0.30 0.30 0.28 0.32 0.39 0.52
0.59 0.66 0.75 0.79 0.66 0.61 0.70 0.71 0.69 0.69 0.68 0.63 0.57 0.49 0.45 0.44 0.37 0.27 0.24 0.28 0.37 0.44 0.47 0.42 0.34 0.32 0.30 0.28 0.23 0.20 0.17 0.16 0.17 0.20 0.23 0.26 0.27 0.26 0.28 0.26 0.27 0.31 0.37
0.67 0.75 0.76 0.77 0.81 0.82 0.77 0.76 0.75 0.74 0.74 0.72 0.70 0.65 0.59 0.56 0.52 0.40 0.32 0.31 0.38 0.44 0.46 0.51 0.45 0.32 0.29 0.31 0.30 0.21 0.14 0.13 0.16 0.17 0.20 0.24 0.22 0.20 0.20 0.24 0.27 0.28 0.29
0.75 0.79 0.82 0.84 0.86 0.88 0.91 0.89 0.85 0.80 0.81 0.81 0.76 0.73 0.70 0.69 0.64 0.53 0.45 0.39 0.41 0.43 0.46 0.49 0.52 0.44 0.34 0.34 0.35 0.25 0.17 0.15 0.15 0.15 0.17 0.19 0.19 0.18 0.18 0.19 0.23 0.27 0.29
0.84 0.86 0.89 0.91 0.93 0.94 0.94 0.92 0.88 0.84 0.77 0.80 0.78 0.72 0.72 0.73 0.68 0.61 0.55 0.49 0.46 0.46 0.46 0.48 0.49 0.50 0.43 0.37 0.35 0.27 0.23 0.20 0.18 0.17 0.15 0.16 0.18 0.19 0.19 0.18 0.18 0.21 0.25
0.95 0.88 0.87 0.86 0.87 0.89 0.89 0.78 0.64 0.61 0.56 0.53 0.56 0.57 0.58 0.54 0.51 0.49 0.52 0.51 0.50 0.53 0.49 0.51 0.53 0.51 0.48 0.43 0.36 0.31 0.29 0.22 0.19 0.17 0.16 0.15 0.16 0.18 0.18 0.15 0.14 0.15 0.17
0.92 0.89 0.82 0.77 0.75 0.75 0.80 0.79 0.71 0.61 0.59 0.53 0.44 0.41 0.44 0.40 0.37 0.37 0.44 0.48 0.50 0.53 0.50 0.51 0.55 0.52 0.48 0.46 0.36 0.29 0.29 0.23 0.19 0.17 0.16 0.17 0.16 0.15 0.15 0.14 0.13 0.13 0.14
0.88 0.81 0.76 0.73 0.71 0.68 0.69 0.71 0.70 0.71 0.71 0.63 0.51 0.44 0.41 0.34 0.29 0.30 0.38 0.47 0.49 0.48 0.51 0.52 0.55 0.51 0.47 0.42 0.32 0.26 0.24 0.20 0.17 0.16 0.15 0.14 0.14 0.14 0.14 0.13 0.11 0.10 0.12
0.92 0.80 0.72 0.66 0.66 0.67 0.66 0.67 0.68 0.71 0.73 0.72 0.61 0.54 0.46 0.34 0.29 0.31 0.34 0.37 0.38 0.40 0.45 0.46 0.45 0.43 0.41 0.34 0.26 0.23 0.22 0.17 0.13 0.12 0.12 0.13 0.13 0.13 0.15 0.16 0.14 0.12 0.11
0.92 0.82 0.75 0.65 0.62 0.67 0.71 0.67 0.65 0.70 0.72 0.71 0.65 0.53 0.40 0.32 0.29 0.29 0.30 0.29 0.28 0.31 0.35 0.35 0.33 0.31 0.29 0.24 0.19 0.16 0.16 0.14 0.11 0.10 0.10 0.11 0.11 0.12 0.14 0.15 0.16 0.15 0.14
0.89 0.81 0.71 0.63 0.59 0.60 0.65 0.66 0.62 0.64 0.67 0.65 0.57 0.46 0.31 0.24 0.22 0.21 0.22 0.22 0.21 0.23 0.26 0.26 0.23 0.21 0.18 0.16 0.13 0.11 0.11 0.10 0.07 0.07 0.07 0.08 0.08 0.09 0.09 0.11 0.12 0.12 0.12
0.88 0.86 0.76 0.66 0.61 0.59 0.60 0.61 0.61 0.60 0.60 0.60 0.50 0.36 0.28 0.24 0.21 0.17 0.16 0.15 0.14 0.16 0.17 0.17 0.16 0.15 0.13 0.12 0.09 0.07 0.06 0.05 0.05 0.05 0.05 0.05 0.06 0.07 0.08 0.08 0.09 0.10 0.09
0.85 0.85 0.79 0.68 0.60 0.59 0.56 0.58 0.61 0.57 0.52 0.51 0.42 0.30 0.23 0.22 0.18 0.15 0.13 0.10 0.09 0.11 0.11 0.11 0.10 0.10 0.09 0.08 0.07 0.04 0.03 0.02 0.02 0.02 0.02 0.03 0.03 0.05 0.05 0.06 0.07 0.08 0.09
0.82 0.82 0.76 0.66 0.60 0.57 0.55 0.56 0.54 0.46 0.39 0.38 0.34 0.24 0.21 0.20 0.14 0.12 0.09 0.06 0.07 0.07 0.06 0.06 0.05 0.04 0.04 0.04 0.04 0.03 0.02 0.01 0.01 0.01 0.01 0.01 0.02 0.02 0.03 0.04 0.05 0.05 0.06
0.78 0.77 0.74 0.67 0.60 0.54 0.50 0.49 0.46 0.39 0.31 0.28 0.27 0.23 0.21 0.16 0.12 0.10 0.06 0.05 0.06 0.05 0.03 0.03 0.03 0.02 0.02 0.02 0.02 0.02 0.01 0.01 0.01 0.01 0.01 0.01 0.02 0.02 0.03 0.03 0.04 0.05 0.05
0.73 0.71 0.67 0.63 0.56 0.48 0.44 0.43 0.39 0.32 0.25 0.21 0.21 0.19 0.15 0.13 0.11 0.09 0.06 0.05 0.05 0.04 0.03 0.03 0.02 0.02 0.02 0.02 0.02 0.02 0.01 0.01 0.01 0.02 0.01 0.01 0.02 0.03 0.04 0.03 0.03 0.03 0.04